DW8847 Weather Reports


time (UTC)temp
F
wind
direction
speed
knots
gust
knots
rain 1hr
in
rain 24hr
in
rain mn
in
humidity
%
barometer
mb
20260507093521 68 118 0.9 3.5 0.00 0.43 0.00 69 1012.3
20260507093022 67 122 0.0 1.7 0.00 0.43 0.00 69 1012.2
20260507092521 67 122 0.0 2.6 0.00 0.43 0.00 68 1012.2
20260507092021 67 132 0.0 2.6 0.00 0.43 0.00 70 1012.2
20260507091521 67 67 0.9 3.5 0.00 0.43 0.00 73 1012.2
20260507091021 68 92 0.0 4.3 0.00 0.43 0.00 69 1012.2
20260507090522 69 78 0.0 3.5 0.00 0.43 0.00 69 1012.3
20260507090019 68 46 0.0 3.5 0.00 0.43 0.00 68 1012.3
20260507085519 67 53 0.9 2.6 0.00 0.43 0.00 67 1012.2
20260507085018 68 35 0.0 3.5 0.00 0.43 0.00 69 1012.3
20260507084518 68 83 0.9 4.3 0.00 0.43 0.00 69 1012.2
20260507084023 67 62 1.7 4.3 0.00 0.43 0.00 71 1012.3
20260507083515 66 30 0.0 3.5 0.00 0.43 0.00 71 1012.2
20260507083020 66 63 0.0 3.5 0.00 0.43 0.00 70 1012.2
20260507082514 66 88 0.9 4.3 0.00 0.43 0.00 74 1012.1
20260507082014 65 84 0.0 1.7 0.00 0.43 0.00 75 1012.1
20260507081522 65 84 0.0 1.7 0.00 0.43 0.00 73 1012.0
20260507081013 66 84 0.0 3.5 0.00 0.43 0.00 72 1012.0
20260507080518 67 76 0.9 3.5 0.00 0.43 0.00 73 1012.1
20260507080016 67 67 0.9 2.6 0.00 0.43 0.00 73 1012.1
20260507075510 67 60 0.0 1.7 0.00 0.43 0.00 74 1012.0
20260507075009 66 59 0.0 1.7 0.00 0.43 0.00 74 1012.0
20260507074508 66 59 0.0 2.6 0.00 0.43 0.00 74 1012.0
20260507074008 65 57 0.9 3.5 0.00 0.43 0.00 75 1012.1
20260507073505 65 53 0.9 4.3 0.00 0.43 0.00 77 1012.0
20260507073005 65 57 0.0 4.3 0.00 0.43 0.00 75 1012.1
20260507072506 65 102 0.9 3.5 0.00 0.43 0.00 77 1012.1
20260507072004 65 38 0.9 3.5 0.00 0.43 0.00 76 1012.0
20260507071501 64 45 0.0 4.3 0.00 0.43 0.00 79 1012.0
20260507071101 64 57 0.9 4.3 0.00 0.43 0.00 79 1012.0
20260507070600 63 67 1.7 4.3 0.00 0.43 0.00 79 1011.9
20260507070059 63 71 1.7 3.5 0.00 0.43 0.00 81 1011.7
20260507065558 63 65 1.7 3.5 0.00 0.44 0.00 82 1011.8
20260507065057 63 57 0.9 3.5 0.00 0.44 0.00 83 1011.8
20260507064613 63 53 0.9 3.5 0.00 0.44 0.00 83 1011.8
20260507064056 62 19 1.7 4.3 0.00 0.44 0.00 84 1011.8
20260507063555 62 48 1.7 4.3 0.00 0.44 0.00 84 1011.8
20260507063056 62 59 0.9 3.5 0.00 0.44 0.00 86 1011.7
20260507062552 61 38 0.9 4.3 0.00 0.44 0.00 86 1011.7
20260507062051 61 40 1.7 4.3 0.00 0.44 0.00 87 1011.7
20260507061550 60 22 2.6 4.3 0.00 0.44 0.00 88 1011.6
20260507061048 60 37 1.7 5.2 0.00 0.44 0.00 90 1011.5
20260507060548 59 26 1.7 5.2 0.00 0.44 0.00 90 1011.5
20260507060052 59 33 2.6 4.3 0.00 0.44 0.00 90 1011.5
20260507055547 59 30 0.9 4.3 0.00 0.45 0.00 90 1011.5
20260507055046 58 36 0.9 4.3 0.00 0.45 0.00 90 1011.5
20260507054548 59 34 1.7 4.3 0.00 0.45 0.00 89 1011.4
20260507054045 59 59 1.7 4.3 0.00 0.45 0.00 89 1011.3
20260507053544 59 44 1.7 3.5 0.00 0.45 0.00 90 1011.2
20260507053045 59 33 0.9 2.6 0.00 0.45 0.00 90 1011.2
20260507052545 59 40 1.7 4.3 0.00 0.45 0.00 90 1011.1
20260507052041 58 53 0.9 4.3 0.00 0.45 0.00 91 1011.1
20260507051540 58 28 1.7 3.5 0.00 0.45 0.00 91 1011.0
20260507051038 58 45 0.9 2.6 0.00 0.45 0.00 91 1010.9
20260507050538 58 46 0.9 2.6 0.00 0.45 0.00 91 1010.9
20260507050040 58 35 0.0 2.6 0.00 0.45 0.00 92 1010.8
20260507045540 58 35 0.0 2.6 0.00 0.45 0.00 92 1010.8
20260507045036 58 35 0.0 1.7 0.00 0.45 0.00 92 1010.7
20260507044535 58 35 0.0 1.7 0.00 0.45 0.00 92 1010.6
20260507044036 58 35 0.0 1.7 0.00 0.45 0.00 92 1010.5
20260507043538 58 35 0.9 1.7 0.00 0.45 0.00 92 1010.5
20260507043035 58 35 0.0 1.7 0.00 0.45 0.00 92 1010.5
20260507042534 58 35 0.0 2.6 0.00 0.45 0.00 92 1010.6
20260507042034 58 35 0.9 2.6 0.00 0.45 0.00 92 1010.5
20260507041547 57 44 0.9 2.6 0.00 0.45 0.00 92 1010.4
20260507041035 57 62 0.0 1.7 0.00 0.45 0.00 92 1010.4
20260507040534 57 62 0.0 1.7 0.00 0.45 0.00 92 1010.4
20260507040032 57 62 0.9 1.7 0.00 0.45 0.00 92 1010.3
20260507035531 57 62 0.0 1.7 0.00 0.45 0.00 92 1010.3
20260507035031 57 62 0.0 1.7 0.00 0.45 0.00 92 1010.3
20260507034531 57 62 0.0 0.0 0.00 0.45 0.00 92 1010.4
20260507034031 57 62 0.0 0.0 0.00 0.45 0.00 92 1010.4
20260507033533 58 62 0.0 0.0 0.00 0.45 0.00 92 1010.4
20260507033034 58 62 0.0 0.9 0.00 0.45 0.00 92 1010.4
20260507032531 58 62 0.0 1.7 0.00 0.45 0.00 92 1010.4
20260507032030 58 62 0.0 1.7 0.00 0.45 0.00 92 1010.3
20260507031530 58 62 0.0 1.7 0.00 0.45 0.00 92 1010.3
20260507031030 58 62 0.0 1.7 0.00 0.45 0.00 92 1010.4
20260507030530 58 62 0.0 1.7 0.00 0.45 0.00 92 1010.4
20260507030030 58 62 0.0 1.7 0.00 0.45 0.00 92 1010.4
20260507025529 58 62 0.0 1.7 0.00 0.45 0.00 92 1010.4
20260507025029 58 62 0.0 1.7 0.00 0.45 0.00 92 1010.4
20260507024529 58 62 0.0 1.7 0.00 0.45 0.00 92 1010.4
20260507024030 58 62 0.0 0.0 0.00 0.45 0.00 92 1010.4
20260507023529 58 62 0.0 0.0 0.00 0.45 0.00 92 1010.3
20260507023030 58 62 0.0 0.9 0.00 0.45 0.00 92 1010.3
20260507022528 58 62 0.0 0.9 0.00 0.45 0.00 92 1010.3
20260507022029 58 62 0.0 0.0 0.00 0.45 0.00 92 1010.3
20260507021528 58 62 0.0 1.7 0.00 0.45 0.00 92 1010.3
20260507021031 58 62 0.0 1.7 0.00 0.45 0.00 92 1010.3
20260507020528 58 62 0.0 1.7 0.00 0.45 0.00 92 1010.2
20260507020029 58 62 0.0 1.7 0.00 0.45 0.00 92 1010.3
20260507015527 57 62 0.0 1.7 0.00 0.45 0.00 92 1010.2
20260507015031 57 62 0.0 0.9 0.00 0.45 0.00 91 1010.2
20260507014546 58 62 0.0 0.0 0.00 0.45 0.00 91 1010.3
20260507014031 58 62 0.0 0.9 0.00 0.45 0.00 91 1010.3
20260507013527 58 62 0.0 0.9 0.00 0.45 0.00 92 1010.2
20260507013040 58 62 0.0 0.0 0.00 0.45 0.00 92 1010.2
20260507012528 58 62 0.0 1.7 0.00 0.45 0.00 92 1010.2
20260507012030 58 62 0.0 1.7 0.00 0.45 0.00 92 1010.3
20260507011535 58 62 0.0 1.7 0.00 0.45 0.00 92 1010.2
20260507011025 58 62 0.0 1.7 0.00 0.45 0.00 92 1010.3
20260507010525 58 62 0.0 0.0 0.00 0.45 0.00 92 1010.3
20260507010029 58 62 0.0 0.0 0.00 0.45 0.00 92 1010.4
20260507005524 58 62 0.0 0.0 0.00 0.45 0.00 92 1010.3
20260507005024 58 62 0.0 0.0 0.00 0.45 0.00 92 1010.4
20260507004524 58 62 0.0 0.0 0.00 0.45 0.00 92 1010.3
20260507004025 58 62 0.0 0.0 0.00 0.45 0.00 92 1010.3
20260507003524 58 62 0.0 0.0 0.00 0.45 0.00 92 1010.3
20260507003024 58 62 0.0 0.0 0.00 0.45 0.00 92 1010.4
20260507002523 58 62 0.0 0.0 0.00 0.45 0.00 92 1010.4
20260507002023 58 62 0.0 0.0 0.00 0.45 0.00 92 1010.3
20260507001521 58 62 0.0 0.0 0.00 0.45 0.00 92 1010.3
20260507001022 57 62 0.0 0.0 0.00 0.45 0.00 91 1010.4
20260507000526 57 62 0.0 0.0 0.00 0.45 0.00 91 1010.4
20260507000028 57 62 0.0 0.0 0.00 0.45 0.00 91 1010.4
20260506235522 57 62 0.0 0.0 0.00 0.45 0.00 91 1010.5
20260506235021 57 62 0.0 1.7 0.00 0.45 0.00 91 1010.4
20260506234521 57 62 0.0 1.7 0.00 0.45 0.00 91 1010.4
20260506234022 57 62 0.0 0.0 0.00 0.45 0.00 91 1010.4
20260506233520 57 62 0.0 1.7 0.00 0.45 0.00 90 1010.4
20260506233023 57 62 0.0 1.7 0.00 0.45 0.00 90 1010.5
20260506232522 57 62 0.0 1.7 0.00 0.45 0.00 90 1010.5
20260506232019 57 62 0.0 0.0 0.00 0.45 0.00 90 1010.5
20260506231518 57 62 0.0 0.9 0.00 0.45 0.00 90 1010.6
20260506231018 57 62 0.0 1.7 0.00 0.45 0.00 90 1010.5
20260506230518 57 62 0.0 1.7 0.00 0.45 0.00 90 1010.4
20260506230017 57 62 0.0 2.6 0.00 0.45 0.00 90 1010.5
20260506225521 57 62 0.0 2.6 0.00 0.45 0.00 90 1010.6
20260506225017 57 62 0.0 2.6 0.00 0.45 0.00 90 1010.6
20260506224519 57 62 0.9 2.6 0.00 0.45 0.00 90 1010.6
20260506224016 57 61 0.0 1.7 0.00 0.45 0.00 90 1010.6
20260506223517 58 62 0.0 1.7 0.00 0.45 0.00 90 1010.6
20260506223016 58 61 0.0 1.7 0.00 0.45 0.00 90 1010.5
20260506222517 58 65 0.0 2.6 0.00 0.45 0.00 90 1010.5
20260506222014 58 65 0.9 2.6 0.00 0.45 0.00 90 1010.5
20260506221514 58 65 0.9 2.6 0.00 0.45 0.00 90 1010.5
20260506221016 58 65 0.0 1.7 0.00 0.45 0.00 90 1010.4
20260506220514 58 65 0.0 0.9 0.00 0.45 0.00 90 1010.4
20260506220012 58 65 0.0 1.7 0.00 0.45 0.00 90 1010.4
20260506215517 58 65 0.0 3.5 0.00 0.45 0.45 90 1010.4
20260506215012 58 65 0.9 3.5 0.00 0.45 0.45 90 1010.4
20260506214512 58 74 0.0 1.7 0.00 0.45 0.45 90 1010.5
20260506214011 58 74 0.0 1.7 0.00 0.45 0.45 90 1010.5
20260506213511 58 74 0.0 1.7 0.00 0.45 0.45 90 1010.5
20260506213014 58 74 0.0 1.7 0.00 0.45 0.45 91 1010.5
20260506212512 58 109 0.0 1.7 0.00 0.45 0.45 91 1010.5
20260506212012 58 111 0.0 0.9 0.00 0.45 0.45 91 1010.5
20260506211510 58 111 0.0 1.7 0.00 0.45 0.45 91 1010.5
20260506211011 59 111 0.0 1.7 0.00 0.45 0.45 91 1010.6
20260506210511 59 111 0.0 1.7 0.00 0.45 0.45 91 1010.6
20260506210014 59 69 0.0 0.9 0.00 0.45 0.45 91 1010.6
20260506205511 59 69 0.0 1.7 0.00 0.46 0.45 91 1010.6
20260506205010 59 69 0.0 2.6 0.00 0.46 0.45 91 1010.6
20260506204510 59 72 0.0 2.6 0.00 0.46 0.45 91 1010.6
20260506204010 59 192 0.0 1.7 0.00 0.46 0.45 91 1010.6
20260506203510 59 196 0.0 1.7 0.00 0.46 0.45 91 1010.6
20260506203010 59 196 0.0 0.0 0.00 0.46 0.45 91 1010.5
20260506202510 59 196 0.0 0.0 0.00 0.46 0.45 91 1010.5
20260506202013 60 196 0.0 0.0 0.00 0.46 0.45 91 1010.4
20260506201509 60 196 0.0 1.7 0.00 0.46 0.45 91 1010.4
20260506201010 60 196 0.0 1.7 0.00 0.46 0.45 91 1010.4
20260506200509 60 196 0.0 1.7 0.00 0.46 0.45 91 1010.3
20260506200009 60 196 0.0 1.7 0.00 0.46 0.45 91 1010.4
20260506195509 60 196 0.0 0.0 0.00 0.51 0.45 91 1010.3
20260506195009 60 196 0.0 0.0 0.00 0.51 0.45 91 1010.3
20260506194511 60 196 0.0 0.0 0.00 0.51 0.45 91 1010.2
20260506194009 60 196 0.0 0.0 0.00 0.51 0.45 91 1010.1
20260506193509 60 196 0.0 0.0 0.00 0.51 0.45 91 1010.0
20260506193008 60 196 0.0 0.9 0.00 0.51 0.45 91 1010.0
20260506192509 60 196 0.0 0.9 0.00 0.51 0.45 91 1009.9
20260506192008 60 196 0.0 1.7 0.00 0.51 0.45 91 1009.9
20260506191508 60 196 0.0 1.7 0.00 0.51 0.45 91 1009.9
20260506191008 61 196 0.0 2.6 0.00 0.51 0.45 91 1009.8
20260506190509 61 196 0.0 2.6 0.00 0.51 0.45 91 1009.7
20260506190008 60 196 0.0 2.6 0.00 0.51 0.45 91 1009.6
20260506185508 60 182 0.0 1.7 0.00 0.53 0.45 91 1009.5
20260506185007 61 180 0.0 1.7 0.00 0.53 0.45 91 1009.5
20260506184507 61 180 0.0 1.7 0.00 0.53 0.45 91 1009.4
20260506184007 60 180 0.0 1.7 0.00 0.53 0.45 91 1009.5
20260506183507 61 167 0.0 1.7 0.00 0.53 0.45 91 1009.5
20260506183007 61 167 0.0 1.7 0.00 0.53 0.45 91 1009.5
20260506182507 60 167 0.0 0.0 0.00 0.53 0.45 91 1009.5
20260506182010 60 167 0.0 0.0 0.00 0.53 0.45 91 1009.4
20260506181506 60 167 0.0 0.0 0.00 0.53 0.45 90 1009.4
20260506181007 60 167 0.0 0.0 0.00 0.53 0.45 90 1009.4
20260506180510 60 167 0.0 0.0 0.00 0.53 0.45 90 1009.4
20260506180006 60 167 0.0 0.0 0.00 0.53 0.45 90 1009.5
20260506175507 60 167 0.0 0.0 0.00 0.54 0.45 90 1009.5
20260506175006 60 167 0.0 0.0 0.00 0.54 0.45 90 1009.5
20260506174505 60 167 0.0 1.7 0.00 0.54 0.45 90 1009.4
20260506174008 60 167 0.0 1.7 0.00 0.54 0.45 90 1009.5
20260506173506 60 167 0.0 1.7 0.00 0.54 0.45 90 1009.4
20260506173005 60 167 0.0 1.7 0.00 0.54 0.45 90 1009.4
20260506172505 60 167 0.0 1.7 0.00 0.54 0.45 90 1009.4
20260506172007 60 167 0.0 1.7 0.00 0.54 0.45 90 1009.3
20260506171505 60 167 0.0 1.7 0.00 0.54 0.45 90 1009.2
20260506171007 60 167 0.0 2.6 0.00 0.54 0.45 90 1009.1
20260506170504 60 167 0.0 2.6 0.01 0.54 0.45 90 1009.0
20260506170006 60 215 0.0 2.6 0.02 0.54 0.45 90 1009.1
20260506165504 60 215 0.0 2.6 0.02 0.57 0.45 90 1009.2
20260506165004 60 215 0.0 2.6 0.02 0.57 0.45 90 1009.2
20260506164504 60 215 0.0 3.5 0.03 0.57 0.45 89 1009.2
20260506164004 60 215 0.9 3.5 0.05 0.57 0.45 89 1009.2
20260506163503 60 240 0.0 1.7 0.06 0.57 0.45 89 1009.2
20260506163010 60 267 0.0 2.6 0.07 0.57 0.45 89 1009.3
20260506162503 60 200 0.9 3.5 0.09 0.57 0.45 89 1009.3
20260506162007 60 219 0.0 3.5 0.12 0.57 0.45 89 1009.2
20260506161507 60 180 1.7 5.2 0.15 0.57 0.45 89 1009.2
20260506161003 60 189 0.9 7.0 0.17 0.57 0.45 89 1009.2
20260506160502 60 179 1.7 8.7 0.18 0.56 0.44 88 1009.1
20260506160005 60 218 2.6 8.7 0.19 0.56 0.43 88 1009.2
20260506155504 60 232 3.5 9.6 0.20 0.61 0.43 89 1009.1
20260506155002 60 252 3.5 9.6 0.20 0.61 0.43 89 1009.2
20260506154502 60 163 1.7 7.8 0.20 0.60 0.42 89 1009.1
20260506154002 60 173 2.6 8.7 0.18 0.57 0.40 88 1009.0
20260506153502 61 204 3.5 8.7 0.17 0.56 0.39 89 1009.2
20260506153001 61 184 0.0 3.5 0.16 0.56 0.38 89 1009.1
20260506152501 61 192 0.9 3.5 0.13 0.54 0.35 89 1009.1
20260506152004 61 199 0.0 4.3 0.10 0.50 0.32 88 1009.2
20260506151600 61 213 0.9 4.3 0.08 0.48 0.30 88 1009.3
20260506151100 61 188 0.9 4.3 0.06 0.46 0.28 88 1009.3
20260506150600 62 183 0.9 5.2 0.04 0.44 0.26 87 1009.3
20260506150105 62 223 1.7 6.1 0.02 0.43 0.24 86 1009.3
20260506145602 62 232 0.9 6.1 0.01 0.46 0.23 86 1009.3
20260506145059 62 209 0.9 5.2 0.00 0.46 0.22 86 1009.2
20260506144601 62 230 0.9 3.5 0.00 0.46 0.22 85 1009.1
20260506144100 63 219 0.0 3.5 0.00 0.46 0.22 85 1009.2
20260506143600 63 156 0.9 3.5 0.00 0.46 0.22 86 1009.2
20260506143059 63 237 0.0 2.6 0.00 0.46 0.22 85 1009.2
20260506142558 63 142 0.0 3.5 0.00 0.46 0.22 85 1009.3
20260506142057 63 167 0.0 3.5 0.00 0.46 0.22 85 1009.4
20260506141557 63 83 0.9 5.2 0.00 0.46 0.22 85 1009.4
20260506141056 63 65 0.0 5.2 0.01 0.46 0.22 85 1009.6
20260506140559 63 46 1.7 5.2 0.02 0.46 0.22 84 1009.6
20260506140056 63 311 0.0 2.6 0.03 0.46 0.22 86 1009.6
20260506135554 62 209 0.0 7.0 0.09 0.52 0.22 85 1009.7
20260506135055 62 200 1.7 7.0 0.12 0.52 0.22 85 1009.8
20260506134616 62 202 1.7 7.0 0.12 0.52 0.22 85 1009.8
20260506134057 62 190 1.7 7.0 0.12 0.52 0.22 86 1009.8
20260506133555 62 181 1.7 6.1 0.12 0.52 0.22 87 1009.8
20260506133053 62 196 1.7 5.2 0.12 0.52 0.22 88 1009.8
20260506132552 61 327 1.7 6.1 0.12 0.52 0.22 88 1009.8
20260506132051 61 226 0.9 5.2 0.12 0.52 0.22 88 1010.0
20260506131503 61 225 1.7 5.2 0.12 0.52 0.22 88 1010.0
20260506131003 61 244 1.7 8.7 0.12 0.52 0.22 88 1010.1
20260506130502 61 206 2.6 7.8 0.11 0.51 0.21 87 1010.1
20260506130002 61 200 3.5 7.8 0.09 0.50 0.20 86 1010.2
20260506125502 62 214 1.7 5.2 0.06 0.47 0.16 85 1010.2
20260506125001 63 203 2.6 4.3 0.01 0.43 0.11 84 1010.1
20260506124501 63 255 2.6 5.2 0.00 0.42 0.10 84 1010.0
20260506124002 63 234 1.7 7.8 0.00 0.42 0.10 84 1010.0
20260506123603 63 225 2.6 7.8 0.00 0.42 0.10 83 1010.1
20260506123100 63 242 2.6 5.2 0.01 0.42 0.10 84 1010.1
20260506122600 63 218 1.7 7.8 0.01 0.42 0.10 85 1010.1
20260506122100 63 205 2.6 7.8 0.01 0.42 0.10 84 1010.0
20260506121608 63 194 1.7 6.1 0.01 0.42 0.10 86 1010.0
20260506121058 62 201 1.7 6.1 0.02 0.42 0.10 86 1010.0
20260506120558 62 217 1.7 7.0 0.02 0.42 0.10 86 1010.0
20260506115557 62 211 1.7 7.0 0.02 0.43 0.10 87 1010.0
20260506115055 62 208 1.7 7.0 0.02 0.43 0.10 87 1010.1
20260506114556 62 200 2.6 7.0 0.02 0.43 0.10 87 1010.2
20260506114055 62 227 1.7 6.1 0.02 0.43 0.10 88 1010.1
20260506113555 62 178 2.6 6.1 0.02 0.43 0.10 88 1010.1
20260506113055 62 199 1.7 7.0 0.02 0.42 0.09 88 1010.1
20260506112555 62 208 1.7 5.2 0.02 0.42 0.09 88 1010.1
20260506112055 62 206 1.7 6.1 0.02 0.42 0.09 88 1010.1
20260506111611 62 236 1.7 7.0 0.01 0.41 0.09 88 1010.1
20260506111054 61 177 2.6 7.0 0.01 0.41 0.09 88 1010.1
20260506110554 62 195 1.7 6.1 0.02 0.41 0.09 88 1010.1
20260506110054 62 198 0.9 7.0 0.02 0.41 0.09 88 1010.2
20260506105553 62 208 1.7 7.0 0.02 0.42 0.09 87 1010.2
20260506105053 62 209 1.7 8.7 0.03 0.42 0.09 87 1010.3
20260506104553 62 205 1.7 8.7 0.03 0.42 0.09 88 1010.3
20260506104055 62 233 1.7 6.1 0.04 0.42 0.09 88 1010.3
20260506103551 62 205 0.9 5.2 0.03 0.41 0.08 88 1010.4
20260506103051 62 194 1.7 5.2 0.04 0.41 0.08 88 1010.4
20260506102551 62 142 0.0 4.3 0.05 0.41 0.08 88 1010.3
20260506102053 62 205 1.7 4.3 0.05 0.41 0.08 88 1010.4
20260506101550 62 217 0.0 2.6 0.06 0.41 0.08 88 1010.5
20260506101049 61 200 0.0 5.2 0.06 0.41 0.08 88 1010.6
20260506100549 61 256 0.9 5.2 0.05 0.40 0.07 89 1010.6
20260506100049 61 230 0.0 5.2 0.04 0.39 0.06 88 1010.8
20260506095548 61 205 0.0 5.2 0.04 0.39 0.06 88 1010.8
20260506095049 61 52 0.0 2.6 0.03 0.39 0.06 88 1010.8
20260506094549 61 82 0.0 4.3 0.03 0.39 0.06 88 1010.8
20260506094049 61 140 0.0 4.3 0.02 0.38 0.05 88 1010.8
20260506093552 61 26 0.0 2.6 0.02 0.37 0.04 87 1010.8